Location: Kitt Peak
(31.9639°N, 111.5992°W)
Time: 05:06:33
(UTC-07:00)

NOAA 15 - Visible Passes

Search period start: 17 September 2024 00:00
Search period end: 27 September 2024 00:00
Orbit: 794 x 811 km, 98.6° (Epoch: 17 September)

Date Brightness Start Highest point End Pass type
(mag) Time Alt. Az. Time Alt. Az. Time Alt. Az.
17 Sep 4.6 19:19:33 10° SSE 19:24:46 89° WSW 19:30:01 10° NNW visible
18 Sep 4.8 18:54:00 10° SSE 18:59:00 50° ENE 19:04:02 10° N visible
18 Sep 7.4 20:36:01 10° SW 20:38:56 15° W 20:41:52 10° WNW visible
19 Sep 6.5 20:08:31 10° SSW 20:12:56 28° W 20:17:22 10° NW visible
20 Sep 5.4 19:41:56 10° S 19:47:00 52° W 19:52:05 10° NNW visible
21 Sep 4.5 19:15:56 10° SSE 19:21:09 85° ENE 19:26:24 10° NNW visible
22 Sep 4.9 18:50:26 10° SE 18:55:23 46° ENE 19:00:22 10° N visible
22 Sep 7.3 20:32:04 10° SW 20:35:17 16° W 20:38:30 10° NW visible
23 Sep 6.4 20:04:43 10° SSW 20:09:16 30° W 20:13:50 10° NW visible
24 Sep 5.2 19:38:13 10° S 19:43:20 57° W 19:48:29 10° NNW visible
25 Sep 4.5 19:12:18 10° SSE 19:17:30 78° ENE 19:22:43 10° N visible
26 Sep 5.0 18:46:51 10° SE 18:51:44 42° ENE 18:56:38 10° N visible
26 Sep 7.2 20:28:07 10° SW 20:31:35 18° W 20:35:04 10° NW visible
